sat.trackr.live / text

‹ back to catalog

STARLINK-31401

NORAD 59417 · 2024-064V

PAYLOAD ACTIVE UNKNOWN

§ Identity

Operator
Country
US
Launch date
2024-04-05
Launch site
AFETR
Launch vehicle
Mass (kg)
RCS (m²)

Purposes: comms

External: N2YO · Heavens-Above · Gunter

§ Orbital elements

Epoch: 2026-09-21T15:21:18.262080Z

Period
94.27 min
Inclination
43.0040°
Eccentricity
0.0001148
Mean motion
15.27581544 rev/d
Perigee alt
482.3 km
Apogee alt
483.8 km
Semi-major
6,861.2 km
B*
-6.9893e-6
RAAN
22.6369°
Arg perigee
272.9330°
Mean anomaly
87.1390°
Rev number
13,902

§ Raw data

STARLINK-314011 59417U 24064V   26264.63979470 -.00000454  00000+0 -69893-5 0  99912 59417  43.0040  22.6369 0001148 272.9330  87.1390 15.27581544139022

JSON: /api/v1/satellites/59417 · /tle

For live sub-satellite position, see the globe view (requires WebGL).

§ Visibility from observer

Set your observer location to see the next 7 days of passes ≥ 10°. The values pass through the URL so the page stays shareable.

No JS? Fill the form by hand. The geolocation button needs JavaScript.